Regional Weather Roundup
Issued by NWS Cleveland, OH

Home | Current Version | Previous Version | Text Only | Print | Product List | Glossary Off
Versions: 1 2 3 4 5 6 7 8 9 10 11 12 13 14 15 16 17 18 19 20 21 22 23 24 25 26 27 28 29 30 31 32 33 34 35 36 37 38 39 40 41 42 43 44 45 46 47 48 49 50

000
ASUS41 KCLE 201710
RWRCLE
OHIO REGIONAL WEATHER ROUNDUP
NATIONAL WEATHER SERVICE CLEVELAND, OH
1200 PM EST THU NOV 20 2014

NOTE: "FAIR" INDICATES FEW OR NO CLOUDS BELOW 12,000 FEET WITH NO
SIGNIFICANT WEATHER AND/OR OBSTRUCTIONS TO VISIBILITY.

OHZ001>008-015>018-024>027-034-035-043-044-201800-
   NORTHWEST OHIO

CITY           SKY/WX    TMP DP  RH WIND       PRES   REMARKS
DEFIANCE       SUNNY     26  14  60 SW13G22   30.02F WCI  15
FINDLAY        MOSUNNY   25  15  66 W25       30.03F WCI   9
TOLEDO EXPRESS MOSUNNY   24  14  65 W29G36    29.99S WCI   7
TOLEDO EXEC    PTSUNNY   26  15  63 SW20      30.00F WCI  12
LIMA           CLOUDY    25  14  63 W23G31    30.05S WCI  10
$$

OHZ009>014-019>023-028>033-038-089-201800-
   NORTHEAST OHIO

CITY           SKY/WX    TMP DP  RH WIND       PRES   REMARKS
CLE-HOPKINS    PTSUNNY   26  13  57 SW16G33   30.01F WCI  14
CLE-LAKEFRONT  MOSUNNY   27  13  55 SW29G36   29.98F WCI  11
CUY CO. ARPT   PTSUNNY   28  14  54 SW18G37   29.96F WCI  16
LORAIN-ELYRIA  MOSUNNY   25  13  60 W24G31    30.00F WCI   9
ASHTABULA      CLOUDY    26  11  52 W18G30    29.93F WCI  13
AKRON-CANTON   PTSUNNY   25  11  55 SW20G28   30.00S WCI  11
WOOSTER        PTSUNNY   26  11  52 W24G31    30.01F WCI  11
MANSFIELD      MOSUNNY   23  12  62 SW16G29   30.00F WCI  10
YOUNGSTOWN     CLOUDY    24  12  60 SW20G26   29.96F WCI  10
$$

OHZ042-051>053-060>062-070>072-077>081-201800-
  SOUTHWEST OHIO

CITY           SKY/WX    TMP DP  RH WIND       PRES   REMARKS
CINC-COVINGTON MOSUNNY   29  13  51 SW15      30.17S WCI  18
CINC-LUNKEN    MOSUNNY   30  15  53 W20G25    30.20F WCI  17
HAMILTON       PTSUNNY   31  15  52 W13G21    30.18S WCI  21
DAYTON         MOSUNNY   26  14  60 W23G30    30.11F WCI  11
WRIGHT-PAT AFB MOSUNNY   27  13  56 SW17G26   30.11F WCI  14
DAYTON GENERAL MOSUNNY   27  13  55 W16G24    30.12F WCI  15
WILMINGTON     SUNNY     26  12  55 W18       30.12F WCI  13
$$

OHZ036-037-039>041-045>050-054>059-063>069-073>076-082>088-201800-
  CENTRAL AND SOUTHEAST OHIO

CITY           SKY/WX    TMP DP  RH WIND       PRES   REMARKS
COLUMBUS       MOSUNNY   26  12  55 W21       30.11S WCI  12
OSU AIRPORT    PTSUNNY   26  13  57 W17G24    30.09S WCI  13
BOLTON FIELD   PTSUNNY  N/A N/A N/A SW14      30.12
RICKENBACK AFB PTSUNNY   25  14  62 W15       30.12F WCI  13
NEWARK         CLOUDY    25  12  58 SW15G23   30.09F WCI  13
MARION         MOSUNNY   25  14  63 W14G23    30.05F WCI  13
LANCASTER      CLOUDY    26  14  60 W14G22    30.12F WCI  14
ZANESVILLE     CLOUDY    26  12  55 W15G25    30.09F WCI  14
NEW PHILLY     CLOUDY    26  11  52 W8G20     30.06F WCI  18
$$


USA.gov is the U.S. government's official web portal to all federal, state and local government web resources and services.